Date String (YYYY-MM-DD hh:mm:ss) UTC,Instrument flags,Ambient pressure (hPa),Sample flow (lpm),Bypass flow (lpm),Sample temperature (°C),Ambient temperature (°C),ASC tube jacket temperature (°C),LED temperature (°C),Box temperature (°C),Sample RH (%),Span deviation,Mass concentration (μg/m³),Mass concentration (μg/m³),Mass concentration (μg/m³)
DateTimeUTC,F1_M11,P_M11,Q1_M11,Q2_M11,T1_M11,T2_M11,T3_M11,T4_M11,T5_M11,U1_M11,ZSPAN_M11,X0_M11,X2_M11,X1_M11
2022-05-01 23:00:00,,0819.8,5.00,0.00,30.2,29.3,00.0,39.1,31.9,10.2,0000.0,0020.62,0006.62,0004.74
2022-05-01 23:01:00,,0819.9,5.00,0.00,30.2,29.3,00.0,39.1,31.8,10.1,0000.0,0019.59,0006.57,0004.71
2022-05-01 23:02:00,,0819.9,5.00,0.00,30.2,29.2,00.0,39.1,31.8,10.1,0000.0,0019.17,0006.53,0004.69
2022-05-01 23:03:00,,0819.9,5.00,0.00,30.2,29.2,00.0,39.1,31.8,10.1,0000.0,0019.34,0006.56,0004.66
2022-05-01 23:04:00,,0820.0,4.98,0.00,30.1,29.2,00.0,39.1,31.8,10.2,0000.0,0018.17,0006.52,0004.63
2022-05-01 23:05:00,,0819.9,5.01,0.00,30.1,29.2,00.0,39.1,31.9,10.2,0000.0,0017.90,0006.43,0004.61
2022-05-01 23:06:00,,0819.9,4.98,0.00,30.1,29.2,00.0,39.1,31.9,10.2,0000.0,0016.82,0006.28,0004.56
2022-05-01 23:07:00,,0819.9,4.99,0.00,30.1,29.2,00.0,39.1,31.9,10.3,0000.0,0017.26,0006.21,0004.53
2022-05-01 23:08:00,,0819.9,5.01,0.00,30.1,29.2,00.0,39.1,31.9,10.3,0000.0,0016.51,0006.14,0004.49
2022-05-01 23:09:00,,0819.8,5.00,0.00,30.1,29.2,00.0,39.1,31.9,10.3,0000.0,0016.98,0006.09,0004.47
2022-05-01 23:10:00,,0819.8,5.01,0.00,30.1,29.2,00.0,39.1,31.8,10.3,0000.0,0017.25,0006.00,0004.44
2022-05-01 23:11:00,,0819.9,4.99,0.00,30.1,29.2,00.0,39.1,31.8,10.4,0000.0,0017.37,0005.92,0004.41
2022-05-01 23:12:00,,0819.9,5.01,0.00,30.1,29.2,00.0,39.1,31.8,10.4,0000.0,0017.39,0005.94,0004.38
2022-05-01 23:13:00,,0819.9,4.99,0.00,30.1,29.1,00.0,39.1,31.8,10.5,0000.0,0016.78,0005.90,0004.33
2022-05-01 23:14:00,,0819.9,5.00,0.00,30.2,29.2,00.0,39.1,31.8,10.6,0000.0,0017.63,0005.81,0004.30
2022-05-01 23:15:00,,0819.9,5.00,0.00,30.2,29.2,00.0,39.1,31.9,10.7,0000.0,0018.24,0005.79,0004.25
2022-05-01 23:16:00,,0819.9,5.00,0.00,30.2,29.2,00.0,39.1,31.9,10.7,0000.0,0018.34,0005.72,0004.20
2022-05-01 23:17:00,,0819.9,5.01,0.00,30.2,29.2,00.0,39.1,31.9,10.7,0000.0,0018.03,0005.68,0004.17
2022-05-01 23:18:00,,0819.9,4.99,0.00,30.2,29.2,00.0,39.1,31.9,10.7,0000.0,0017.31,0005.66,0004.15
2022-05-01 23:19:00,,0819.9,5.01,0.00,30.2,29.2,00.0,39.1,31.8,10.6,0000.0,0017.19,0005.64,0004.10
2022-05-01 23:20:00,,0819.9,4.98,0.00,30.2,29.2,00.0,39.1,31.7,10.7,0000.0,0016.46,0005.59,0004.06
2022-05-01 23:21:00,,0819.9,5.01,0.00,30.2,29.2,00.0,39.1,31.8,10.8,0000.0,0016.01,0005.60,0004.04
2022-05-01 23:22:00,,0819.9,5.01,0.00,30.2,29.2,00.0,39.1,31.9,10.7,0000.0,0015.67,0005.59,0004.00
2022-05-01 23:23:00,,0819.9,4.99,0.00,30.2,29.2,00.0,39.1,31.9,10.8,0000.0,0015.40,0005.55,0003.98
2022-05-01 23:24:00,,0819.9,5.01,0.00,30.2,29.2,00.0,39.1,31.8,10.8,0000.0,0016.00,0005.60,0003.97
2022-05-01 23:25:00,,0819.9,4.99,0.00,30.2,29.2,00.0,39.1,31.8,10.9,0000.0,0015.10,0005.63,0003.96
2022-05-01 23:26:00,,0819.9,5.00,0.00,30.2,29.2,00.0,39.1,31.8,10.9,0000.0,0014.54,0005.59,0003.95
2022-05-01 23:27:00,,0819.9,5.00,0.00,30.2,29.2,00.0,39.1,31.9,10.8,0000.0,0014.70,0005.64,0003.94
2022-05-01 23:28:00,,0819.9,5.02,0.00,30.2,29.2,00.0,39.1,31.8,10.7,0000.0,0015.31,0005.62,0003.92
2022-05-01 23:29:00,,0819.9,4.98,0.00,30.2,29.1,00.0,39.1,31.8,10.7,0000.0,0016.26,0005.59,0003.91
2022-05-01 23:30:00,,0819.9,5.01,0.00,30.2,29.1,00.0,39.1,31.8,10.7,0000.0,0016.94,0005.59,0003.92
2022-05-01 23:31:00,,0819.9,4.99,0.00,30.2,29.1,00.0,39.1,31.8,10.7,0000.0,0017.19,0005.65,0003.91
2022-05-01 23:32:00,,0819.9,5.01,0.00,30.2,29.1,00.0,39.2,31.8,10.7,0000.0,0016.76,0005.70,0003.91
2022-05-01 23:33:00,,0819.9,4.99,0.00,30.2,29.1,00.0,39.1,31.8,10.7,0000.0,0017.14,0005.74,0003.92
2022-05-01 23:34:00,,0819.9,5.02,0.00,30.2,29.1,00.0,39.1,31.8,10.7,0000.0,0017.39,0005.74,0003.91
2022-05-01 23:35:00,,0819.9,4.98,0.00,30.2,29.1,00.0,39.2,31.9,10.8,0000.0,0017.47,0005.70,0003.91
2022-05-01 23:36:00,,0819.9,5.01,0.00,30.2,29.2,00.0,39.2,31.9,10.7,0000.0,0017.84,0005.74,0003.92
2022-05-01 23:37:00,,0819.9,5.00,0.00,30.2,29.1,00.0,39.2,31.8,10.7,0000.0,0017.07,0005.72,0003.92
2022-05-01 23:38:00,,0820.0,5.00,0.00,30.2,29.1,00.0,39.2,31.8,10.7,0000.0,0016.21,0005.67,0003.93
2022-05-01 23:39:00,,0819.9,4.99,0.00,30.2,29.1,00.0,39.2,31.9,10.7,0000.0,0016.12,0005.69,0003.93
2022-05-01 23:40:00,,0819.9,5.00,0.00,30.2,29.2,00.0,39.2,31.9,10.8,0000.0,0016.09,0005.71,0003.93
2022-05-01 23:41:00,,0819.9,5.00,0.00,30.2,29.2,00.0,39.2,31.9,10.9,0000.0,0015.41,0005.73,0003.93
2022-05-01 23:42:00,,0819.9,5.01,0.00,30.2,29.2,00.0,39.2,31.9,10.9,0000.0,0015.72,0005.71,0003.93
2022-05-01 23:43:00,,0819.9,4.99,0.00,30.2,29.2,00.0,39.2,31.9,11.0,0000.0,0015.97,0005.63,0003.91
2022-05-01 23:44:00,,0819.9,5.01,0.00,30.2,29.2,00.0,39.2,31.9,10.9,0000.0,0016.48,0005.59,0003.90
2022-05-01 23:45:00,,0819.8,4.98,0.00,30.2,29.2,00.0,39.2,31.9,10.8,0000.0,0016.58,0005.58,0003.90
2022-05-01 23:46:00,,0819.8,5.02,0.00,30.2,29.2,00.0,39.2,31.9,10.8,0000.0,0016.80,0005.58,0003.91
2022-05-01 23:47:00,,0819.8,4.99,0.00,30.2,29.2,00.0,39.2,31.8,10.8,0000.0,0016.88,0005.50,0003.90
2022-05-01 23:48:00,,0819.8,5.01,0.00,30.2,29.1,00.0,39.2,31.8,10.9,0000.0,0017.25,0005.49,0003.89
2022-05-01 23:49:00,,0819.8,5.00,0.00,30.2,29.2,00.0,39.2,31.9,10.9,0000.0,0018.24,0005.46,0003.88
2022-05-01 23:50:00,,0819.8,4.99,0.00,30.2,29.2,00.0,39.2,31.9,10.9,0000.0,0018.85,0005.43,0003.87
2022-05-01 23:51:00,,0819.8,5.01,0.00,30.2,29.1,00.0,39.2,31.9,10.9,0000.0,0017.79,0005.35,0003.86
2022-05-01 23:52:00,,0819.8,4.99,0.00,30.2,29.1,00.0,39.2,31.9,10.9,0000.0,0018.01,0005.29,0003.84
2022-05-01 23:53:00,,0819.8,5.01,0.00,30.2,29.1,00.0,39.2,31.9,11.1,0000.0,0017.40,0005.29,0003.84
2022-05-01 23:54:00,,0819.8,4.98,0.00,30.2,29.1,00.0,39.2,31.9,11.1,0000.0,0017.80,0005.29,0003.84
2022-05-01 23:55:00,,0819.8,5.02,0.00,30.2,29.2,00.0,39.2,31.9,11.1,0000.0,0017.80,0005.29,0003.83
2022-05-01 23:56:00,,0819.8,4.99,0.00,30.2,29.1,00.0,39.2,31.8,11.1,0000.0,0018.42,0005.33,0003.84
2022-05-01 23:57:00,,0819.8,5.01,0.00,30.2,29.1,00.0,39.2,31.9,11.1,0000.0,0018.01,0005.33,0003.83
2022-05-01 23:58:00,,0819.8,4.99,0.00,30.2,29.2,00.0,39.2,31.9,11.2,0000.0,0017.60,0005.44,0003.82
2022-05-01 23:59:00,,0819.7,5.02,0.00,30.2,29.2,00.0,39.2,31.9,11.2,0000.0,0018.16,0005.43,0003.82
